Bluefield, WV

1:39 PM EST on November 22, 2019 (GMT -0500)
Mercer County

Weather History for KBLF - October, 2019

Change the Weather History Date:

Monday, October 21, 2019

  Actual Average Record
Temperature  
Mean Temperature 58 °F 55 °F  
Max Temperature 66 °F 64 °F 80 °F (2007)
Min Temperature 50 °F 46 °F 13 °F (1952)
Degree Days  
Heating Degree Days 7 10  
Month to date heating degree days 178 169  
Since 1 July heating degree days 206 248  
Cooling Degree Days 0 0  
Month to date cooling degree days 32 16  
Year to date cooling degree days 748 848  
Growing Degree Days 8 (Base 50)    
Moisture  
Dew Point 53 °F    
Average Humidity 87    
Maximum Humidity 100    
Minimum Humidity 73    
Precipitation  
Precipitation 0.00 in 0.08 in 1.80 in (1983)
Month to date precipitation 3.90 1.70  
Year to date precipitation 32.43 33.23  
Snow  
Snow 0.00 in - - ()
Month to date snowfall 0.0  
Since 1 July snowfall 0.0  
Since 1 September snowfall 0.0  
Snow Depth 0.00 in    
Sea Level Pressure  
Sea Level Pressure 30.01 in    
Wind  
Wind Speed 7 mph (SE)    
Max Wind Speed 16 mph    
Max Gust Speed 28 mph    
Visibility 10 miles    
Events      
T = Trace of Precipitation, MM = Missing Value Source: NWS Daily Summary

Daily Weather History Graph

Daily Weather History Graph

Search for Another Location

Airport or City:

Astronomy

Oct. 21, 2019 Rise Set
Actual Time 7:38 AM EDT 6:40 PM EDT
Civil Twilight 7:11 AM EDT 7:06 PM EDT
Nautical Twilight 6:41 AM EDT 7:36 PM EDT
Astronomical Twilight 6:11 AM EDT 8:07 PM EDT
Moon No Moon Rise 2:50 PM EDT (10/21)
Length of Visible Light 11h 54m
Length of Day
11h 01m
Waning Gibbous, 48% of the Moon is Illuminated
Oct 21
Waning Gibbous
Oct 27
New
Nov 4
First Quarter
Nov 12
Full
Nov 19
Last Quarter

Hourly Weather History & Observations

Time (EDT) Temp. Dew Point Humidity Pressure Visibility Wind Dir Wind Speed Gust Speed Precip Events Conditions
12:26 AM 52.0 °F 52.0 °F 100% 30.06 in 10.0 mi Calm Calm - N/A   Overcast
12:52 AM 52.0 °F 52.0 °F 100% 30.02 in 10.0 mi Calm Calm - N/A   Overcast
1:03 AM 52.0 °F 52.0 °F 100% 30.06 in 10.0 mi Calm Calm - N/A   Overcast
1:52 AM 51.1 °F 51.1 °F 100% 30.03 in 10.0 mi Calm Calm - N/A   Overcast
2:33 AM 51.1 °F 51.1 °F 100% 30.06 in 10.0 mi Calm Calm - N/A   Overcast
2:52 AM 51.1 °F 51.1 °F 100% 30.02 in 10.0 mi Calm Calm - N/A   Overcast
3:03 AM 51.1 °F 51.1 °F 100% 30.06 in 10.0 mi Calm Calm - N/A   Overcast
3:52 AM 51.1 °F 51.1 °F 100% 30.01 in 10.0 mi ENE 3.5 mph - N/A   Overcast
4:52 AM 51.1 °F 51.1 °F 100% 30.01 in 10.0 mi Calm Calm - N/A   Overcast
5:42 AM 51.1 °F 51.1 °F 100% 30.04 in 10.0 mi ENE 4.6 mph - N/A   Overcast
5:52 AM 51.1 °F 51.1 °F 100% 30.01 in 10.0 mi ENE 5.8 mph - N/A   Overcast
6:07 AM 51.1 °F 51.1 °F 100% 30.04 in 10.0 mi Variable 4.6 mph - N/A   Overcast
6:52 AM 51.1 °F 51.1 °F 100% 30.02 in 10.0 mi ESE 6.9 mph - N/A   Overcast
7:13 AM 51.1 °F 51.1 °F 100% 30.05 in 10.0 mi Variable 4.6 mph - N/A   Overcast
7:52 AM 51.1 °F 51.1 °F 100% 30.01 in 10.0 mi NE 6.9 mph - N/A   Overcast
8:05 AM 51.1 °F 51.1 °F 100% 30.04 in 10.0 mi Variable 3.5 mph - N/A   Overcast
8:52 AM 53.1 °F 52.0 °F 96% 30.02 in 10.0 mi SE 12.7 mph 17.3 mph N/A   Overcast
9:52 AM 55.0 °F 53.1 °F 93% 30.02 in 10.0 mi SSE 11.5 mph 19.6 mph N/A   Overcast
10:10 AM 55.0 °F 53.1 °F 93% 30.06 in 10.0 mi SSE 9.2 mph 23.0 mph N/A   Scattered Clouds
10:52 AM 57.9 °F 53.1 °F 84% 30.02 in 10.0 mi SSE 9.2 mph 18.4 mph N/A   Partly Cloudy
11:52 AM 60.1 °F 53.1 °F 78% 30.02 in 10.0 mi South 9.2 mph 18.4 mph N/A   Clear
12:52 PM 61.0 °F 54.0 °F 78% 30.01 in 10.0 mi Variable 6.9 mph - N/A   Scattered Clouds
1:52 PM 64.0 °F 55.0 °F 73% 29.96 in 10.0 mi SSE 11.5 mph 20.7 mph N/A   Clear
2:52 PM 64.0 °F 55.0 °F 73% 29.95 in 10.0 mi South 6.9 mph - N/A   Clear
3:52 PM 64.0 °F 55.0 °F 73% 29.94 in 10.0 mi South 5.8 mph - N/A   Clear
4:52 PM 63.0 °F 55.0 °F 75% 29.95 in 10.0 mi SSE 9.2 mph - N/A   Clear
5:52 PM 61.0 °F 55.0 °F 81% 29.96 in 10.0 mi Variable 5.8 mph - N/A   Partly Cloudy
6:52 PM 60.1 °F 55.0 °F 83% 29.96 in 10.0 mi SSE 12.7 mph 24.2 mph N/A   Mostly Cloudy
7:52 PM 59.0 °F 54.0 °F 83% 29.95 in 10.0 mi SSE 9.2 mph 18.4 mph N/A   Partly Cloudy
8:52 PM 59.0 °F 54.0 °F 83% 29.96 in 10.0 mi Variable 6.9 mph 19.6 mph N/A   Clear
9:52 PM 60.1 °F 54.0 °F 80% 29.97 in 10.0 mi South 12.7 mph 25.3 mph N/A   Clear
10:52 PM 60.1 °F 54.0 °F 80% 29.96 in 10.0 mi South 8.1 mph - N/A   Scattered Clouds
11:52 PM 61.0 °F 55.0 °F 81% 29.95 in 10.0 mi South 9.2 mph 17.3 mph N/A   Scattered Clouds